| time (UTC) | temp F | wind direction | speed MPH | gust MPH | rain 1hr in | rain 24hr in | rain mn in | humidity % | barometer mb |
| 20260831105159 | 65 | 225 | 17.0 | 23.0 | 0.00 | 0.00 | 0.00 | 97 | 1008.9 |
| 20260831103958 | 65 | 248 | 7.0 | 11.0 | 0.00 | 0.00 | 0.00 | 97 | 1008.9 |
| 20260831102757 | 65 | 252 | 9.0 | 13.0 | 0.00 | 0.00 | 0.00 | 97 | 1008.9 |
| 20260831101556 | 66 | 241 | 12.0 | 13.0 | 0.00 | 0.00 | 0.00 | 97 | 1008.9 |
| 20260831100355 | 65 | 258 | 9.0 | 17.0 | 0.00 | 0.00 | 0.00 | 98 | 1008.9 |
| 20260831095213 | 64 | 252 | 13.0 | 19.0 | 0.00 | 0.00 | 0.00 | 98 | 1008.9 |
| 20260831093953 | 64 | 257 | 7.0 | 9.0 | 0.00 | 0.00 | 0.00 | 98 | 1008.9 |
| 20260831092751 | 63 | 248 | 7.0 | 11.0 | 0.00 | 0.00 | 0.00 | 97 | 1008.9 |
| 20260831091549 | 63 | 225 | 12.0 | 13.0 | 0.00 | 0.00 | 0.00 | 97 | 1008.9 |
| 20260831090409 | 64 | 225 | 9.0 | 15.0 | 0.00 | 0.00 | 0.00 | 96 | 1008.9 |
| 20260831085147 | 65 | 225 | 15.0 | 19.0 | 0.00 | 0.00 | 0.00 | 95 | 1008.9 |
| 20260831083947 | 65 | 248 | 17.0 | 20.0 | 0.00 | 0.00 | 0.00 | 93 | 1008.9 |
| 20260831082745 | 66 | 225 | 16.0 | 19.0 | 0.00 | 0.00 | 0.00 | 92 | 1008.9 |
| 20260831081544 | 66 | 225 | 17.0 | 23.0 | 0.00 | 0.00 | 0.00 | 93 | 1008.9 |
| 20260831080503 | 65 | 238 | 17.0 | 22.0 | 0.00 | 0.00 | 0.00 | 95 | 1008.9 |
| 20260831075142 | 64 | 238 | 13.0 | 19.0 | 0.00 | 0.00 | 0.00 | 97 | 1008.9 |
| 20260831073940 | 63 | 264 | 13.0 | 20.0 | 0.00 | 0.00 | 0.00 | 97 | 1008.9 |
| 20260831072738 | 63 | 225 | 16.0 | 23.0 | 0.00 | 0.00 | 0.00 | 97 | 1008.9 |
| 20260831071537 | 63 | 235 | 10.0 | 14.0 | 0.00 | 0.00 | 0.00 | 97 | 1008.9 |
| 20260831070336 | 63 | 238 | 15.0 | 20.0 | 0.00 | 0.00 | 0.00 | 96 | 1008.9 |
| 20260831065155 | 63 | 237 | 13.0 | 16.0 | 0.00 | 0.00 | 0.00 | 95 | 1008.9 |
| 20260831063934 | 63 | 248 | 11.0 | 14.0 | 0.00 | 0.00 | 0.00 | 93 | 1008.9 |
| 20260831062733 | 64 | 248 | 12.0 | 18.0 | 0.00 | 0.00 | 0.00 | 92 | 1008.9 |
| 20260831061552 | 64 | 248 | 14.0 | 16.0 | 0.00 | 0.00 | 0.00 | 92 | 1008.9 |
| 20260831060330 | 64 | 225 | 11.0 | 18.0 | 0.00 | 0.00 | 0.00 | 93 | 1008.9 |
| 20260831055129 | 63 | 236 | 13.0 | 17.0 | 0.00 | 0.00 | 0.00 | 93 | 1008.9 |
| 20260831053928 | 63 | 225 | 13.0 | 21.0 | 0.00 | 0.00 | 0.00 | 94 | 1008.9 |
| 20260831052727 | 62 | 248 | 9.0 | 13.0 | 0.00 | 0.00 | 0.00 | 94 | 1008.9 |
| 20260831051526 | 62 | 248 | 10.0 | 17.0 | 0.00 | 0.00 | 0.00 | 95 | 1008.9 |
| 20260831050324 | 62 | 236 | 10.0 | 13.0 | 0.00 | 0.00 | 0.00 | 95 | 1008.9 |
| 20260831045123 | 62 | 270 | 14.0 | 15.0 | 0.00 | 0.00 | 0.00 | 95 | 1008.9 |
| 20260831043922 | 62 | 225 | 9.0 | 14.0 | 0.00 | 0.00 | 0.00 | 95 | 1008.9 |
| 20260831042721 | 63 | 236 | 7.0 | 10.0 | 0.00 | 0.00 | 0.00 | 95 | 1008.9 |
| 20260831041540 | 63 | 248 | 10.0 | 13.0 | 0.00 | 0.00 | 0.00 | 95 | 1008.9 |
| 20260831040340 | 62 | 248 | 10.0 | 13.0 | 0.00 | 0.00 | 0.00 | 96 | 1008.9 |
| 20260831035139 | 62 | 225 | 9.0 | 13.0 | 0.00 | 0.00 | 0.00 | 96 | 1008.9 |
| 20260831033917 | 62 | 248 | 11.0 | 12.0 | 0.00 | 0.00 | 0.00 | 96 | 1008.9 |
| 20260831032716 | 63 | 225 | 7.0 | 9.0 | 0.00 | 0.00 | 0.00 | 95 | 1008.9 |
| 20260831031515 | 63 | 237 | 10.0 | 15.0 | 0.00 | 0.00 | 0.00 | 95 | 1008.9 |
| 20260831030414 | 63 | 248 | 13.0 | 17.0 | 0.00 | 0.00 | 0.00 | 95 | 1008.9 |
| 20260831025213 | 63 | 248 | 10.0 | 15.0 | 0.00 | 0.00 | 0.00 | 95 | 1008.9 |
| 20260831024012 | 63 | 243 | 12.0 | 14.0 | 0.00 | 0.00 | 0.00 | 95 | 1008.9 |
| 20260831022810 | 63 | 244 | 11.0 | 13.0 | 0.00 | 0.00 | 0.00 | 96 | 1008.9 |
| 20260831021610 | 63 | 225 | 11.0 | 15.0 | 0.00 | 0.00 | 0.00 | 96 | 1008.9 |
| 20260831020428 | 63 | 225 | 9.0 | 12.0 | 0.00 | 0.00 | 0.00 | 96 | 1008.9 |
| 20260831015207 | 63 | 231 | 9.0 | 13.0 | 0.00 | 0.00 | 0.00 | 96 | 1008.9 |
| 20260831014006 | 63 | 243 | 9.0 | 9.0 | 0.00 | 0.00 | 0.00 | 96 | 1008.9 |
| 20260831012805 | 63 | 248 | 6.0 | 7.0 | 0.00 | 0.00 | 0.00 | 96 | 1008.9 |
| 20260831011604 | 63 | 225 | 6.0 | 11.0 | 0.00 | 0.00 | 0.00 | 96 | 1008.9 |
| 20260831010403 | 64 | 225 | 8.0 | 9.0 | 0.00 | 0.00 | 0.00 | 96 | 1008.9 |
| 20260831005202 | 64 | 225 | 8.0 | 11.0 | 0.00 | 0.00 | 0.00 | 95 | 1008.9 |
| 20260831004001 | 64 | 230 | 6.0 | 7.0 | 0.00 | 0.00 | 0.00 | 95 | 1008.9 |
| 20260831002800 | 65 | 225 | 7.0 | 7.0 | 0.00 | 0.00 | 0.00 | 95 | 1008.9 |
| 20260831001559 | 64 | 233 | 6.0 | 11.0 | 0.00 | 0.00 | 0.00 | 94 | 1008.9 |
| 20260831000358 | 65 | 225 | 5.0 | 6.0 | 0.00 | 0.00 | 0.00 | 94 | 1008.9 |
| 20260830235157 | 65 | 225 | 3.0 | 5.0 | 0.00 | 0.00 | 0.00 | 93 | 1008.9 |
| 20260830233956 | 64 | 220 | 1.0 | 3.0 | 0.00 | 0.00 | 0.00 | 93 | 1008.9 |
| 20260830232755 | 64 | 225 | 2.0 | 6.0 | 0.00 | 0.00 | 0.00 | 92 | 1008.9 |
| 20260830231553 | 64 | 225 | 2.0 | 3.0 | 0.00 | 0.00 | 0.00 | 91 | 1008.9 |
| 20260830230352 | 65 | 196 | 2.0 | 3.0 | 0.00 | 0.00 | 0.00 | 91 | 1008.9 |
| 20260830225151 | 65 | 203 | 3.0 | 4.0 | 0.00 | 0.00 | 0.00 | 91 | 1008.9 |
| 20260830223950 | 66 | 203 | 3.0 | 4.0 | 0.00 | 0.00 | 0.00 | 91 | 1008.9 |
| 20260830222749 | 65 | 225 | 2.0 | 6.0 | 0.00 | 0.00 | 0.00 | 91 | 1008.9 |
| 20260830221608 | 66 | 248 | 4.0 | 5.0 | 0.00 | 0.00 | 0.00 | 90 | 1008.9 |
| 20260830220346 | 66 | 225 | 4.0 | 5.0 | 0.00 | 0.00 | 0.00 | 90 | 1008.9 |
| 20260830215203 | 65 | 239 | 4.0 | 5.0 | 0.00 | 0.00 | 0.00 | 90 | 1008.9 |
| 20260830214003 | 65 | 219 | 3.0 | 3.0 | 0.00 | 0.00 | 0.00 | 89 | 1008.9 |
| 20260830212802 | 66 | 203 | 4.0 | 7.0 | 0.00 | 0.00 | 0.00 | 89 | 1008.9 |
| 20260830211600 | 66 | 203 | 4.0 | 6.0 | 0.00 | 0.00 | 0.00 | 88 | 1008.9 |
| 20260830210400 | 66 | 225 | 3.0 | 5.0 | 0.00 | 0.00 | 0.00 | 88 | 1008.9 |
| 20260830205159 | 66 | 210 | 2.0 | 3.0 | 0.00 | 0.00 | 0.00 | 87 | 1008.9 |
| 20260830203957 | 67 | 203 | 4.0 | 5.0 | 0.00 | 0.00 | 0.00 | 86 | 1008.9 |
| 20260830202816 | 67 | 203 | 4.0 | 7.0 | 0.00 | 0.00 | 0.00 | 86 | 1008.9 |
| 20260830201555 | 67 | 203 | 4.0 | 7.0 | 0.00 | 0.00 | 0.00 | 85 | 1008.9 |
| 20260830200354 | 67 | 203 | 6.0 | 6.0 | 0.00 | 0.00 | 0.00 | 85 | 1008.9 |
| 20260830195153 | 68 | 218 | 6.0 | 8.0 | 0.00 | 0.00 | 0.00 | 84 | 1008.9 |
| 20260830193952 | 68 | 225 | 5.0 | 9.0 | 0.00 | 0.00 | 0.00 | 84 | 1008.9 |
| 20260830192751 | 68 | 214 | 4.0 | 5.0 | 0.00 | 0.00 | 0.00 | 83 | 1008.9 |
| 20260830191550 | 69 | 225 | 8.0 | 10.0 | 0.00 | 0.00 | 0.00 | 82 | 1008.9 |
| 20260830190409 | 69 | 225 | 6.0 | 11.0 | 0.00 | 0.00 | 0.00 | 81 | 1008.9 |
| 20260830185208 | 69 | 218 | 4.0 | 8.0 | 0.00 | 0.00 | 0.00 | 80 | 1008.9 |
| 20260830184006 | 70 | 203 | 4.0 | 6.0 | 0.00 | 0.00 | 0.00 | 80 | 1008.9 |
| 20260830182746 | 71 | 203 | 8.0 | 9.0 | 0.00 | 0.00 | 0.00 | 79 | 1008.9 |
| 20260830181544 | 71 | 225 | 4.0 | 7.0 | 0.00 | 0.00 | 0.00 | 79 | 1008.9 |
| 20260830180343 | 71 | 212 | 4.0 | 5.0 | 0.00 | 0.00 | 0.00 | 78 | 1008.9 |
| 20260830175142 | 71 | 203 | 4.0 | 7.0 | 0.00 | 0.00 | 0.00 | 78 | 1008.9 |
| 20260830174001 | 71 | 217 | 5.0 | 8.0 | 0.00 | 0.00 | 0.00 | 78 | 1008.9 |
| 20260830172740 | 71 | 221 | 6.0 | 9.0 | 0.00 | 0.00 | 0.00 | 78 | 1008.9 |
| 20260830171559 | 71 | 219 | 9.0 | 13.0 | 0.00 | 0.00 | 0.00 | 77 | 1008.9 |
| 20260830170358 | 72 | 219 | 7.0 | 11.0 | 0.00 | 0.00 | 0.00 | 77 | 1008.9 |
| 20260830165137 | 72 | 214 | 6.0 | 9.0 | 0.00 | 0.00 | 0.00 | 76 | 1008.9 |
| 20260830163935 | 72 | 248 | 8.0 | 9.0 | 0.00 | 0.00 | 0.00 | 76 | 1008.9 |
| 20260830162734 | 73 | 225 | 10.0 | 14.0 | 0.00 | 0.00 | 0.00 | 75 | 1008.9 |
| 20260830161553 | 73 | 225 | 11.0 | 16.0 | 0.00 | 0.00 | 0.00 | 74 | 1008.9 |
| 20260830160353 | 73 | 225 | 10.0 | 16.0 | 0.00 | 0.00 | 0.00 | 73 | 1008.9 |
| 20260830155131 | 73 | 243 | 6.0 | 8.0 | 0.00 | 0.00 | 0.00 | 73 | 1008.9 |
| 20260830154010 | 74 | 229 | 11.0 | 15.0 | 0.00 | 0.00 | 0.00 | 73 | 1008.9 |
| 20260830152729 | 74 | 203 | 13.0 | 15.0 | 0.00 | 0.00 | 0.00 | 71 | 1008.9 |
| 20260830151527 | 75 | 225 | 9.0 | 14.0 | 0.00 | 0.00 | 0.00 | 72 | 1008.9 |
| 20260830150346 | 74 | 225 | 12.0 | 15.0 | 0.00 | 0.00 | 0.00 | 72 | 1008.9 |
| 20260830145125 | 74 | 225 | 13.0 | 20.0 | 0.00 | 0.00 | 0.00 | 73 | 1008.9 |
| 20260830143944 | 74 | 225 | 11.0 | 14.0 | 0.00 | 0.00 | 0.00 | 72 | 1008.9 |
| 20260830142723 | 75 | 225 | 14.0 | 19.0 | 0.00 | 0.00 | 0.00 | 76 | 1009.7 |
| 20260830141543 | 75 | 241 | 10.0 | 13.0 | 0.00 | 0.00 | 0.00 | 77 | 1010.5 |
| 20260830140320 | 74 | 225 | 6.0 | 11.0 | 0.00 | 0.00 | 0.00 | 78 | 1012.2 |
| 20260830135159 | 73 | 248 | 8.0 | 10.0 | 0.00 | 0.00 | 0.00 | 79 | 1012.2 |
| 20260830133919 | 73 | 243 | 7.0 | 10.0 | 0.00 | 0.00 | 0.00 | 79 | 1012.2 |
| 20260830132717 | 74 | 237 | 6.0 | 9.0 | 0.00 | 0.00 | 0.00 | 80 | 1012.2 |
| 20260830131516 | 73 | 251 | 7.0 | 9.0 | 0.00 | 0.00 | 0.00 | 80 | 1012.2 |
| 20260830130415 | 73 | 248 | 7.0 | 11.0 | 0.00 | 0.00 | 0.00 | 82 | 1012.2 |
| 20260830125213 | 73 | 231 | 11.0 | 12.0 | 0.00 | 0.00 | 0.00 | 81 | 1012.2 |
| 20260830124013 | 73 | 248 | 9.0 | 15.0 | 0.00 | 0.00 | 0.00 | 82 | 1012.2 |
| 20260830122811 | 72 | 248 | 9.0 | 14.0 | 0.00 | 0.00 | 0.00 | 83 | 1012.2 |
| 20260830121610 | 72 | 248 | 6.0 | 8.0 | 0.00 | 0.00 | 0.00 | 86 | 1012.2 |
| 20260830120408 | 70 | 263 | 6.0 | 13.0 | 0.00 | 0.00 | 0.00 | 87 | 1012.2 |
| 20260830115207 | 70 | 251 | 12.0 | 16.0 | 0.00 | 0.00 | 0.00 | 86 | 1012.2 |
| 20260830114006 | 70 | 261 | 7.0 | 13.0 | 0.00 | 0.00 | 0.00 | 86 | 1012.2 |
| 20260830112805 | 70 | 248 | 10.0 | 16.0 | 0.00 | 0.00 | 0.00 | 86 | 1012.2 |
| 20260830111604 | 71 | 248 | 12.0 | 15.0 | 0.00 | 0.00 | 0.00 | 87 | 1009.7 |
| 20260830110423 | 69 | 241 | 9.0 | 14.0 | 0.00 | 0.00 | 0.00 | 88 | 1008.9 |